Trinidad, Colorado, United States (81082)
Lat: 37.17N, Lon: 104.5W
Wx Zone: COZ088
Local Info
Past Weather Observations for Sunday, October 19, 2014

NOTE: This archive is for the closest National Weather Service station to Trinidad. Information may differ from the station used for current weather conditions.

Click here for Long-term Archive

Time Weather Temperature Dewpoint Humidity Pressure Winds Precip Visibility
23:54
Clear
48°F / 9°C 39°F / 4°C 71% 30.18 in
(1022 mb)
W 10.4 mph
(W 17 kph)
- 10SM
22:54
Clear
50°F / 10°C 39°F / 4°C 67% 30.18 in
(1022 mb)
W 9.2 mph
(W 15 kph)
- 10SM
21:54
Clear
52°F / 11°C 39°F / 4°C 62% 30.18 in
(1022 mb)
SSW 12.7 mph
(SSW 20 kph)
- 10SM
20:54
Clear
54°F / 12°C 39°F / 4°C 58% 30.18 in
(1022 mb)
SSW 12.7 mph
(SSW 20 kph)
- 10SM
19:54
Clear
55°F / 13°C 39°F / 4°C 55% 30.18 in
(1022 mb)
SSW 12.7 mph
(SSW 20 kph)
- 10SM
18:54
Clear
57°F / 14°C 39°F / 4°C 51% 30.15 in
(1021 mb)
SSW 11.5 mph
(SSW 19 kph)
- 10SM
17:54
Clear
57°F / 14°C 39°F / 4°C 51% 30.15 in
(1021 mb)
NW 6.9 mph
(NW 11 kph)
- 10SM
16:54
Clear
63°F / 17°C 37°F / 3°C 39% 30.12 in
(1020 mb)
NW 10.4 mph
(NW 17 kph)
- 10SM
15:54
Clear
70°F / 21°C 30°F / -1°C 23% 30.09 in
(1019 mb)
E 3.5 mph
(E 6 kph)
- 10SM
14:54
Clear
73°F / 23°C 30°F / -1°C 20% 30.09 in
(1019 mb)
ENE 6.9 mph
(ENE 11 kph)
- 10SM
13:54
Clear
75°F / 24°C 28°F / -2°C 18% 30.09 in
(1019 mb)
E 4.6 mph
(E 7 kph)
- 10SM
12:54
Clear
73°F / 23°C 30°F / -1°C 20% 30.09 in
(1019 mb)
ENE 4.6 mph
(ENE 7 kph)
- 10SM
11:54
Clear
73°F / 23°C 34°F / 1°C 23% 30.12 in
(1020 mb)
NE 10.4 mph
(NE 17 kph)
- 10SM
10:54
Clear
73°F / 23°C 34°F / 1°C 23% 30.15 in
(1021 mb)
N 15 mph
(N 24 kph)
- 10SM
09:54
Clear
72°F / 22°C 36°F / 2°C 27% 30.15 in
(1021 mb)
N 13.8 mph
(N 22 kph)
- 10SM
08:54
Clear
63°F / 17°C 41°F / 5°C 45% 30.15 in
(1021 mb)
SSW 8.1 mph
(SSW 13 kph)
- 10SM
07:54
Clear
55°F / 13°C 39°F / 4°C 55% 30.15 in
(1021 mb)
SSW 17.3 mph
(SSW 28 kph)
- 10SM
06:54
Clear
50°F / 10°C 41°F / 5°C 71% 30.12 in
(1020 mb)
SSW 15 mph
(SSW 24 kph)
- 10SM
05:54
Clear
50°F / 10°C 41°F / 5°C 71% 30.12 in
(1020 mb)
SSW 16.1 mph
(SSW 26 kph)
- 10SM
04:54
Clear
52°F / 11°C 41°F / 5°C 67% 30.09 in
(1019 mb)
SSW 18.4 mph
(SSW 30 kph)
- 10SM
03:54
Clear
52°F / 11°C 43°F / 6°C 72% 30.09 in
(1019 mb)
SSW 17.3 mph
(SSW 28 kph)
- 10SM
02:54
Partly Cloudy
52°F / 11°C 43°F / 6°C 72% 30.09 in
(1019 mb)
SSW 13.8 mph
(SSW 22 kph)
- 10SM
01:54
Clear
52°F / 11°C 43°F / 6°C 72% 30.09 in
(1019 mb)
SSW 20.7 mph
(SSW 33 kph)
- 10SM
00:54
Clear
52°F / 11°C 43°F / 6°C 72% 30.09 in
(1019 mb)
SSW 18.4 mph
(SSW 30 kph)
- 10SM
Time Weather Temperature Dewpoint Humidity Pressure Winds Precip Visibility


Weather for websites

WeatherForYou.com, LLC is not responsible for any damages or problems caused by this service. Current weather conditions are obtained from the closest station including government and personal stations which may have varying degrees of accuracy. Weather forecasts are derived from the NOAA NDFD. Like all things, this site belongs to Jesus Christ... He just trusts me to maintain it. If you have any questions or comments email webmaster@weatherforyou.com

Copyright © 2014, WeatherForYou.com LLC. All rights reserved.